C/2020 K8 ( Catalina-ATLAS )

Japanese version
Home page
Updated on September 20, 2020

---------------------------------------------------------------------

* Profile

Discovery Date May 25 and June 7, 2020
Magnitude 19.3 mag and 18.7 mag
Discoverer Catalina Sky Survey, Asteroid Terrestrial-Impact Last Alert System (ATLAS) search program

* Pictures

* Orbital Elements

Epoch 2020 Sept. 28.0 TT = JDT 2459120.5
T 2020 Sept. 14.51883 TT                                Rudenko
q   0.4745437            (2000.0)            P               Q
z  -0.0002946      Peri.  260.06895     +0.15019366     -0.98856069
 +/-0.0001166      Node   181.51390     +0.97940018     +0.14687151
e   1.0001398      Incl.   31.41456     -0.13497092     -0.03430049
From 211 observations 2020 May 25-Aug. 2, mean residual 0".8.

* Finding Charts

* Magnitudes Graph

        m1 = 14.0 + 5 log d + 10.0 log r

---------------------------------------------------------------------

The orbital elements are published on M.P.E.C. 2020-P19.
The charts are made with StellaNavigator Ver.10 (AstroArts).
The magnitudes graphs are made with Comet for Windows.

---------------------------------------------------------------------

Copyright(C) Seiichi Yoshida (comet@aerith.net). All rights reserved.